www.pogodaiklimat.ru

Погода и климат >> Архив погоды >> Россия >> Ханты-Мансийский АО >> Казым-Мыс


ПОГОДА в Казым-Мысе

  • Прогноз погоды в Казым-Мысе
  • Монитор погоды в Казым-Мысе

АРХИВ ПОГОДЫ в Казым-Мысе

Время (UTC), дата Ветер
(напр.,м/с)
 
Видим.   Явления Облачность Т
(С)
Тd
(С)
f
(%)
Тe
(С)
Тes
(С)
Комфортность P
(гПа)
Po
(гПа)
Тmin
(С)
Tmax
(С)
R
(мм)
R24
(мм)
S
(см)
03 10.06 С 4 н/о н/о +9.3 +3.9 69 +7 +7 1011.5 1008.0 +9.2 6
06 10.06 С 3 н/о н/о +8.9 +1.8 61 +7 +8 1014.3 1010.7 +8.6
09 10.06 С 3 н/о н/о +11.6 +0.1 45 +10 +18 1014.2 1010.7
12 10.06 З 2 н/о н/о +14.0 -1.2 35 +14 +16 1014.2 1010.7
15 10.06 ЮВ 1 н/о н/о +13.0 +1.0 44 +13 +13 1012.8 1009.3 +14.3
18 10.06 В 2 н/о н/о +11.3 +2.1 53 +10 +10 1011.5 1008.0
21 10.06 В 2 н/о н/о +7.0 +4.5 84 +5 +5 1010.3 1006.7
00 11.06 В 2 н/о н/о +7.4 +5.5 88 +5 +5 1006.2 1002.7
03 11.06 В 1 н/о н/о +8.3 +7.2 93 +7 +7 1004.8 1001.3 +6.9 3
06 11.06 С 2 н/о н/о +10.0 +8.3 89 +8 +8 1004.8 1001.3
09 11.06 СЗ 3 н/о н/о +12.2 +7.3 72 +11 +11 1006.2 1002.7
12 11.06 С 2 н/о н/о +15.4 +5.9 53 +15 +17 1006.1 1002.7
15 11.06 В 1 н/о н/о +14.4 +6.5 59 +15 +15 1004.7 1001.3 +16.0 0.0
18 11.06 ЮВ 2 н/о н/о +11.8 +7.1 73 +11 +11 1003.5 1000.0
21 11.06 СВ 2 н/о н/о +9.9 +8.2 89 +8 +8 1002.2 998.7
00 12.06 Ю 1 н/о н/о +10.0 +8.6 91 +9 +10 1000.8 997.3
03 12.06 С 2 н/о н/о +11.8 +9.2 84 +11 +11 999.5 996.0 +9.0 0.0
06 12.06 СВ 2 н/о н/о +10.9 +8.5 85 +10 +10 999.5 996.0
09 12.06 СВ 3 н/о н/о +11.3 +8.5 83 +9 +9 998.2 994.7
12 12.06 С 3 н/о н/о +9.6 +7.9 89 +7 +7 998.2 994.7
15 12.06 С 3-10
{12}
н/о н/о +7.0 +5.3 89 +4 +4 999.5 996.0 +12.3 4
18 12.06 СЗ 2
{11}
н/о н/о +6.5 +4.8 89 +4 +4 999.5 996.0
21 12.06 СЗ 2 н/о н/о +3.2 +0.1 80 0 0 999.6 996.0
00 13.06 СЗ 3-11
{11}
н/о н/о +3.6 -0.2 76 -0 -0 999.6 996.0
03 13.06 СЗ 5
{12}
н/о н/о +4.4 +0.4 75 -0 0 999.6 996.0 +2.4 2
06 13.06 СЗ 5
{11}
н/о н/о +5.5 -1.6 60 +1 +1 999.5 996.0
09 13.06 СЗ 5 5000 м ливневой дождь со снегом 10 баллов +2.5 -0.3 82 -3 -3 1000.9 997.3
12 13.06 СЗ 4-10
{10}
н/о н/о +4.4 +1.1 79 0 0 1000.9 997.3
15 13.06 СЗ 2 20 км 9 баллов +2.5 +0.1 84 -1 -1 1000.9 997.3 +6.0 2
18 13.06 СЗ 4-11
{11}
н/о н/о +2.3 -0.5 82 -3 -3 1000.9 997.3
21 13.06 З 3-10
{13}
н/о н/о +0.5 -0.9 90 -4 -4 1000.9 997.3
00 14.06 СЗ 3
{13}
н/о н/о +0.6 -1.2 88 -4 -4 1000.9 997.3
03 14.06 СЗ 4-10
{11}
н/о н/о +2.7 -1.7 73 -2 -1 1000.9 997.3 +0.1 3
06 14.06 СЗ 4-11
{11}
н/о н/о +1.7 -0.7 84 -3 -3 1002.3 998.7
09 14.06 СЗ 6
{11}
н/о н/о +3.9 +0.8 80 -2 -1 1003.6 1000.0
12 14.06 СЗ 4
{11}
н/о н/о +4.5 +0.8 77 0 +1 1004.9 1001.3
15 14.06 СЗ 1
{12}
н/о н/о +5.6 +0.4 69 +5 +5 1004.9 1001.3 +5.6 1
18 14.06 СЗ 1
{11}
н/о н/о +3.5 -0.3 76 +2 +2 1004.9 1001.3
21 14.06 З 1 н/о н/о +2.5 -0.3 82 +1 +1 1006.3 1002.7
00 15.06 З 1 н/о н/о +3.1 +0.3 82 +2 +2 1006.3 1002.7
03 15.06 ЮЗ 1 н/о н/о +7.6 -0.1 58 +7 +7 1004.8 1001.3 +1.8
06 15.06 З 2 н/о н/о +10.9 -1.5 42 +10 +10 1003.5 1000.0
09 15.06 З 4 н/о н/о +11.2 -0.9 43 +9 +9 1003.5 1000.0
12 15.06 ЮЗ 3 н/о н/о +10.9 -0.3 46 +9 +9 1003.5 1000.0
15 15.06 СЗ 1 н/о н/о +7.9 +4.1 77 +7 +7 1003.5 1000.0 +12.0 0.0
18 15.06 штиль 0 н/о н/о +7.2 +4.7 84 +6 +6 1002.2 998.7
21 15.06 Ю 2 н/о н/о +6.2 +4.5 89 +4 +4 1000.8 997.3
00 16.06 З 1 н/о н/о +6.4 +5.0 91 +5 +5 1000.8 997.3
03 16.06 СВ 2 20 км 10 баллов +7.8 +4.9 82 +6 +6 1000.8 997.3 +6.0 3
06 16.06 С 2 20 км в посл. час ливневой дождь 10 баллов +7.3 +4.9 85 +5 +5 1000.8 997.3
09 16.06 С 3 20 км 9 баллов +9.2 +1.1 57 +7 +8 1000.8 997.3
12 16.06 В 2 20 км 7 баллов +11.0 +0.4 48 +10 +12 1000.8 997.3
15 16.06 ЮВ 1 20 км 7 баллов +10.6 +0.6 50 +11 +11 1000.8 997.3 +11.3 1
18 16.06 З 1 20 км 2 балла +4.4 +2.4 87 +3 +3 1000.9 997.3
21 16.06 З 1 20 км 2 балла +2.3 +0.8 90 +1 +1 1000.9 997.3

 

Местоположение метеостанции Казым-Мыс (Ханты-Мансийский АО, Россия): широта 63.72 долгота 67.23 высота над уровнем моря 29 м.

В архиве по умолчанию представлена погода в Казым-Мысе за последнюю неделю. Архивные данные за месяц целиком и за предыдущие месяцы, начиная с января 2011 года, Вы можете получить, выбрав интересующий диапазон дат из раскрывающегося списка и нажав кнопку "Ввод!".


*Определитесь, кто Вы:
робот инопланетянин человек

Внимание! Время в таблицах - всемирное. Для получения местного времени необходимо прибавить поправку, которая равна 5 ч.

Смотрите также архив погоды в соседних городах и на ближайших метеорологических станциях:

Погода в Березово (Ханты-Мансийский АО, Россия) (110 км)
Погода в Юильске (Ханты-Мансийский АО, Россия) (117 км)
Погода в Игриме (Ханты-Мансийский АО, Россия) (150 км)
Погода в Октябрьском (Ханты-Мансийский АО, Россия) (153 км)
Погода в Лонг-Югане (Ямало-Ненецкий АО, Россия) (214 км)
Погода в Мужах (Ямало-Ненецкий АО, Россия) (220 км)
Погода в Вонъегане (Ханты-Мансийский АО, Россия) (230 км)
Погода в Питляре (Ямало-Ненецкий АО, Россия) (243 км)
Погода в Талинке (Ханты-Мансийский АО, Россия) (244 км)
Погода в Нижнесортымском (Ханты-Мансийский АО, Россия) (247 км)

Пояснения к столбцам:

Ветер - указаны скорость ветра в м/с - средняя за 10 мин, порывы в срок и между сроками (в фигурных скобках) и направление, откуда дует ветер: С - северный, СВ - северо-восточный, В - восточный, ЮВ - юго-восточный, Ю - южный, ЮЗ - юго-западный, З - западный, СЗ - северо-западный.
Видимость - горизонтальная дальность видимости в метрах или километрах. При видимости от 1 до 10 км при отсутствии осадков обычно наблюдается дымка, при ухудшении видимости до 1 км и менее - туман. В сухую погоду видимость может ухудшаться дымом, пылью или мглою.
Явления - указаны атмосферные явления, наблюдавшиеся в срок или в последний час перед сроком; фигурными скобками обозначены явления, наблюдавшиеся между сроками (за 1-3 часа до срока); квадратными скобками обозначены град или гололедные отложения с указанием их диаметра в мм.
Облачность - указаны через наклонную черту общая и нижняя облачность в баллах и высота нижней границы облаков в метрах; квадратными скобками обозначены формы облаков: Ci - перистые, Cs - перисто-слоистые, Cc - перисто-кучевые, Ac - высококучевые, As - высокослоистые, Sc - слоисто-кучевые, Ns - слоисто-дождевые, Cu - кучевые, Cb - кучево-дождевые. Подробнее классификацию облаков см. в Атласе облаков (PDF).
T - Температура воздуха - температура, измеренная на высоте 2 м над землей.
Td - Температура точки росы - температура, при понижении до которой содержащийся в воздухе водяной пар достигнет насыщения.
f - Относительная влажность воздуха - влажноcть воздуха, измеренная на высоте 2 м над землей.
Te - Эффективная температура - температура, которую ощущает одетый по сезону человек в тени. Характеристика душности погоды. При расчете учитывается влияние влажности воздуха и скорости ветра на теплоощущения человека.
Tes - Эффективная температура на солнце - температура, которую ощущает человек, с поправкой на солнечный нагрев. Характеристика знойности погоды. Зависит от высоты солнца над горизонтом, облачности и скорости ветра. Ночью, в пасмурную погоду, а также при ветре 12 м/с и более поправка равна нулю.
P - Атмосферное давление - приведенное к уровню моря атмосферное давление.
Po - Атмосферное давление - измеренное на уровне метеостанции атмосферное давление.
Tmin - Минимальная температура - минимум температуры воздуха на высоте 2 м над землей.
Tmax - Максимальная температура - максимум температуры воздуха на высоте 2 м над землей.
R - Количество осадков - Количество выпавших осадков за период времени, мм. При наведении курсора мыши на число - период времени, за который выпало указанное количество осадков.
R24 - Количество осадков - Количество выпавших осадков за 24 часа, мм.
S - Снежный покров - Высота снежного покрова, см. При наведении курсора мыши на число - состояние снежного покрова и степень покрытия местности в баллах.